GW1009 Weather Reports


time (UTC)temp
F
wind
direction
speed
knots
gust
knots
rain 1hr
in
rain 24hr
in
rain mn
in
humidity
%
barometer
mb
20260508091526 34 191 0.0 1.7 0.02 0.02 0.02 88 1010.1
20260508091024 34 188 0.0 1.7 0.02 0.02 0.02 88 1010.0
20260508090524 34 188 0.0 2.6 0.02 0.02 0.02 88 1009.9
20260508090026 34 223 0.0 3.5 0.02 0.02 0.02 87 1010.0
20260508085522 34 291 0.9 3.5 0.02 0.02 0.02 87 1010.0
20260508085022 34 342 1.7 7.8 0.02 0.02 0.02 86 1010.0
20260508084521 35 321 3.5 8.7 0.01 0.01 0.01 86 1010.1
20260508084019 35 307 5.2 8.7 0.01 0.01 0.01 85 1010.1
20260508083519 35 314 2.6 7.0 0.01 0.01 0.01 85 1010.0
20260508083018 36 308 3.5 9.6 0.01 0.01 0.01 83 1010.1
20260508082518 36 313 7.0 9.6 0.01 0.01 0.01 82 1010.0
20260508082017 37 317 5.2 9.6 0.01 0.01 0.01 80 1009.9
20260508081515 38 281 4.3 11.3 0.00 0.00 0.00 78 1009.9
20260508081014 38 294 4.3 14.8 0.00 0.00 0.00 76 1009.7
20260508080513 38 269 7.8 14.8 0.00 0.00 0.00 74 1009.7
20260508080012 38 310 2.6 7.0 0.00 0.00 0.00 71 1009.6
20260508075511 38 287 0.9 3.5 0.00 0.00 0.00 69 1009.5
20260508075009 38 270 0.0 3.5 0.00 0.00 0.00 68 1009.5
20260508074509 38 272 0.0 2.6 0.00 0.00 0.00 67 1009.4
20260508074009 38 254 0.9 2.6 0.00 0.00 0.00 67 1009.4
20260508073509 38 154 0.0 1.7 0.00 0.00 0.00 66 1009.4
20260508073008 38 154 0.0 2.6 0.00 0.00 0.00 66 1009.2
20260508072507 38 153 0.0 2.6 0.00 0.00 0.00 65 1009.3
20260508072009 38 151 0.9 2.6 0.00 0.00 0.00 64 1009.3
20260508071508 38 144 0.0 2.6 0.00 0.00 0.00 64 1009.2
20260508071005 38 123 0.0 2.6 0.00 0.00 0.00 63 1009.2
20260508070509 38 229 0.0 2.6 0.00 0.00 0.00 63 1009.1
20260508070005 38 230 0.0 2.6 0.00 0.00 0.00 64 1009.2
20260508065506 37 238 0.0 0.9 0.00 0.00 0.00 63 1009.1
20260508065006 37 238 0.0 0.0 0.00 0.00 0.00 63 1009.0
20260508064505 37 238 0.0 0.0 0.00 0.00 0.00 63 1008.8
20260508064007 38 238 0.0 0.0 0.00 0.00 0.00 63 1008.8
20260508063504 38 238 0.0 0.0 0.00 0.00 0.00 63 1008.8
20260508063003 38 238 0.0 0.0 0.00 0.00 0.00 62 1008.8
20260508062502 38 238 0.0 0.0 0.00 0.00 0.00 62 1008.8
20260508062002 38 238 0.0 0.9 0.00 0.00 0.00 62 1008.8
20260508061501 38 238 0.0 0.9 0.00 0.00 0.00 62 1008.8
20260508061001 38 238 0.0 0.9 0.00 0.00 0.00 62 1008.9
20260508060601 38 238 0.0 0.9 0.00 0.00 0.00 61 1009.0
20260508060130 38 238 0.0 1.7 0.00 0.00 0.00 61 1009.0
20260508055559 38 238 0.0 1.7 0.00 0.00 0.00 61 1009.0
20260508055059 38 248 0.0 1.7 0.00 0.00 0.00 61 1009.1
20260508054641 38 248 0.0 2.6 0.00 0.00 0.00 61 1009.2
20260508054059 37 248 0.0 2.6 0.00 0.00 0.00 61 1009.2
20260508053557 37 249 0.0 3.5 0.00 0.00 0.00 61 1009.1
20260508053057 37 249 0.0 3.5 0.00 0.00 0.00 61 1009.1
20260508052556 37 234 0.0 2.6 0.00 0.00 0.00 61 1009.3
20260508052055 37 236 0.0 1.7 0.00 0.00 0.00 62 1009.3
20260508051555 37 236 0.0 0.9 0.00 0.00 0.00 62 1009.3
20260508051055 37 235 0.0 0.9 0.00 0.00 0.00 63 1009.3
20260508050554 37 235 0.0 2.6 0.00 0.00 0.00 62 1009.3
20260508050054 37 235 0.9 2.6 0.00 0.00 0.00 62 1009.4
20260508045554 37 265 0.0 1.7 0.00 0.00 0.00 63 1009.4
20260508045052 36 223 0.0 2.6 0.00 0.00 0.00 64 1009.3
20260508044552 36 222 0.0 2.6 0.00 0.00 0.00 64 1009.3
20260508044052 36 247 0.0 1.7 0.00 0.00 0.00 65 1009.3
20260508043550 36 247 0.0 1.7 0.00 0.00 0.00 66 1009.4
20260508043057 36 248 0.0 0.9 0.00 0.00 0.00 66 1009.4
20260508042549 36 247 0.0 0.9 0.00 0.00 0.00 66 1009.3
20260508042045 36 247 0.0 0.0 0.00 0.00 0.00 66 1009.3
20260508041545 36 248 0.0 0.0 0.00 0.00 0.00 66 1009.3
20260508041044 35 248 0.0 0.0 0.00 0.00 0.00 66 1009.2
20260508040544 35 248 0.0 0.0 0.00 0.00 0.00 66 1009.2
20260508040043 35 248 0.0 0.0 0.00 0.00 0.00 68 1009.2
20260508035542 35 248 0.0 0.9 0.00 0.00 0.00 68 1009.2
20260508035042 35 248 0.0 0.9 0.00 0.00 0.00 69 1009.1
20260508034548 35 248 0.0 0.0 0.00 0.00 0.00 70 1009.1
20260508034041 35 248 0.0 0.0 0.00 0.00 0.00 72 1009.0
20260508033543 36 248 0.0 0.0 0.00 0.00 0.00 71 1008.8
20260508033042 36 248 0.0 0.0 0.00 0.00 0.00 68 1008.7
20260508032544 36 248 0.0 0.0 0.00 0.00 0.00 67 1008.8
20260508032040 36 248 0.0 0.0 0.00 0.00 0.00 65 1008.7
20260508031543 36 248 0.0 0.0 0.00 0.00 0.00 65 1008.6
20260508031040 36 248 0.0 0.0 0.00 0.00 0.00 65 1008.7
20260508030541 36 248 0.0 1.7 0.00 0.00 0.00 64 1008.7
20260508030044 36 248 0.0 1.7 0.00 0.00 0.00 64 1008.7
20260508025544 36 248 0.0 1.7 0.00 0.00 0.00 63 1008.7
20260508025040 37 248 0.0 1.7 0.00 0.00 0.00 62 1008.7
20260508024544 37 248 0.9 1.7 0.00 0.00 0.00 61 1008.8
20260508024040 38 248 0.0 1.7 0.00 0.00 0.00 60 1008.8
20260508023540 38 249 0.0 2.6 0.00 0.00 0.00 59 1009.0
20260508023039 39 249 0.0 2.6 0.00 0.00 0.00 60 1009.0
20260508022542 39 302 0.0 1.7 0.00 0.00 0.00 58 1009.0
20260508022039 39 302 0.0 1.7 0.00 0.00 0.00 57 1009.0
20260508021539 40 302 0.0 2.6 0.00 0.00 0.00 58 1009.0
20260508021041 40 302 0.0 2.6 0.00 0.00 0.00 56 1009.1
20260508020538 40 299 0.0 0.9 0.00 0.00 0.00 55 1009.1
20260508020038 41 299 0.0 1.7 0.00 0.00 0.00 53 1009.1
20260508015538 41 299 0.0 1.7 0.00 0.01 0.00 50 1009.1
20260508015038 41 299 0.0 5.2 0.00 0.01 0.00 49 1009.2
20260508014540 41 299 0.9 5.2 0.00 0.01 0.00 48 1009.1
20260508014037 41 280 0.0 2.6 0.00 0.01 0.00 48 1009.1
20260508013538 42 290 0.0 2.6 0.00 0.01 0.00 47 1009.1
20260508013037 42 292 0.9 2.6 0.00 0.01 0.00 47 1009.1
20260508012537 42 286 1.7 2.6 0.00 0.01 0.00 47 1009.1
20260508012037 42 348 0.9 4.3 0.00 0.01 0.00 47 1009.1
20260508011537 42 294 0.9 4.3 0.00 0.01 0.00 47 1009.1
20260508011036 42 289 0.9 3.5 0.00 0.01 0.00 45 1009.1
20260508010536 42 286 0.9 4.3 0.00 0.01 0.00 45 1009.0
20260508010047 42 312 1.7 4.3 0.00 0.01 0.00 44 1008.8
20260508005536 42 301 0.9 3.5 0.00 0.01 0.00 45 1008.8
20260508005039 42 300 0.9 2.6 0.00 0.01 0.00 45 1008.8
20260508004535 42 294 0.9 5.2 0.00 0.01 0.00 44 1008.7
20260508004036 42 300 1.7 7.8 0.00 0.01 0.00 43 1008.6
20260508003535 43 297 1.7 4.3 0.00 0.01 0.00 43 1008.6
20260508003035 43 302 1.7 4.3 0.00 0.01 0.00 43 1008.5
20260508002536 43 305 1.7 6.1 0.00 0.01 0.00 43 1008.3
20260508002034 43 309 1.7 6.1 0.00 0.01 0.00 41 1008.3
20260508001633 44 289 2.6 6.1 0.00 0.01 0.00 41 1008.2
20260508001033 44 279 3.5 7.0 0.00 0.01 0.00 40 1008.3
20260508000536 44 283 3.5 7.0 0.00 0.01 0.00 39 1008.2
20260508000033 44 270 3.5 10.4 0.00 0.01 0.00 38 1008.2
20260507235533 45 287 6.1 10.4 0.00 0.01 0.00 38 1008.2
20260507235033 45 289 5.2 10.4 0.00 0.01 0.00 38 1008.1
20260507234533 45 288 4.3 10.4 0.00 0.01 0.00 39 1008.0
20260507234032 45 303 4.3 10.4 0.00 0.01 0.00 37 1008.1
20260507233532 45 301 4.3 9.6 0.00 0.01 0.00 36 1008.1
20260507233033 45 267 4.3 11.3 0.00 0.01 0.00 37 1008.1
20260507232531 45 289 7.0 13.0 0.00 0.01 0.00 36 1008.1
20260507232032 46 285 6.1 13.9 0.00 0.01 0.00 36 1008.2
20260507231539 46 324 8.7 16.5 0.00 0.01 0.00 36 1008.2
20260507231037 46 294 9.6 16.5 0.00 0.01 0.00 35 1008.2
20260507230532 47 313 7.0 13.9 0.00 0.01 0.00 36 1008.2
20260507230039 47 294 7.8 14.8 0.00 0.01 0.00 33 1008.1
20260507225531 47 298 7.0 14.8 0.00 0.01 0.00 35 1008.1
20260507225031 47 278 7.0 18.2 0.00 0.01 0.00 33 1008.2
20260507224532 47 283 8.7 16.5 0.00 0.01 0.00 32 1008.2
20260507224030 48 298 7.8 14.8 0.00 0.01 0.00 34 1008.0
20260507223529 48 292 9.6 14.8 0.00 0.01 0.00 33 1008.0
20260507223029 47 318 7.8 14.8 0.00 0.01 0.00 35 1008.1
20260507222528 47 312 8.7 16.5 0.00 0.01 0.00 34 1008.1
20260507222028 48 296 7.8 16.5 0.00 0.01 0.00 32 1008.2
20260507221528 48 322 6.1 15.6 0.00 0.01 0.00 34 1008.2
20260507221028 48 300 8.7 18.2 0.00 0.01 0.00 32 1008.2
20260507220527 48 312 10.4 18.2 0.00 0.01 0.00 30 1008.2
20260507220027 48 298 9.6 16.5 0.00 0.01 0.00 32 1008.3
20260507215527 48 287 8.7 17.4 0.00 0.02 0.00 34 1008.3
20260507215026 48 309 9.6 18.2 0.00 0.02 0.00 33 1008.4
20260507214527 49 335 11.3 18.2 0.00 0.02 0.00 34 1008.4
20260507214026 49 312 8.7 15.6 0.00 0.02 0.00 33 1008.4
20260507213532 49 306 9.6 15.6 0.00 0.02 0.00 34 1008.4
20260507213026 49 223 6.1 14.8 0.00 0.02 0.00 36 1008.4
20260507212524 49 285 7.8 15.6 0.00 0.02 0.00 36 1008.3
20260507212024 49 329 7.0 18.2 0.00 0.02 0.00 41 1008.2
20260507211535 49 287 7.8 16.5 0.00 0.02 0.00 39 1008.3
20260507211023 49 275 8.7 17.4 0.00 0.02 0.00 39 1008.3
20260507210523 49 289 8.7 17.4 0.00 0.02 0.00 38 1008.3
20260507210023 49 292 6.1 20.9 0.00 0.02 0.00 40 1008.3
20260507205523 49 289 10.4 20.9 0.00 0.04 0.00 38 1008.4
20260507205022 49 300 7.8 18.2 0.00 0.04 0.00 41 1008.4
20260507204524 49 284 9.6 17.4 0.00 0.04 0.00 39 1008.4
20260507204022 49 284 10.4 19.1 0.00 0.04 0.00 42 1008.4
20260507203523 49 327 12.2 19.1 0.00 0.04 0.00 39 1008.4
20260507203027 49 311 8.7 14.8 0.00 0.04 0.00 39 1008.4
20260507202522 49 296 8.7 16.5 0.00 0.04 0.00 40 1008.4
20260507202020 48 308 10.4 18.2 0.00 0.04 0.00 40 1008.5
20260507201520 49 287 9.6 19.1 0.00 0.04 0.00 39 1008.6
20260507201020 50 307 12.2 19.1 0.00 0.04 0.00 39 1008.5
20260507200520 49 310 9.6 17.4 0.00 0.04 0.00 40 1008.4
20260507200023 49 247 6.1 19.1 0.00 0.04 0.00 43 1008.5
20260507195520 49 331 12.2 19.1 0.00 0.06 0.00 42 1008.6
20260507195018 49 319 7.8 15.6 0.00 0.06 0.00 39 1008.6
20260507194518 49 294 9.6 16.5 0.00 0.06 0.00 38 1008.7
20260507194017 49 267 5.2 19.1 0.00 0.06 0.00 39 1008.7
20260507193517 50 311 11.3 19.1 0.00 0.06 0.00 41 1008.7
20260507193017 50 320 6.1 15.6 0.00 0.06 0.00 40 1008.8
20260507192515 49 321 8.7 13.9 0.00 0.06 0.00 43 1008.8
20260507192015 49 315 8.7 17.4 0.00 0.06 0.00 40 1008.9
20260507191515 50 315 10.4 17.4 0.00 0.06 0.00 40 1008.8
20260507191014 49 261 8.7 17.4 0.00 0.06 0.00 38 1009.0
20260507190514 49 286 9.6 16.5 0.00 0.06 0.00 44 1009.1
20260507190015 49 280 11.3 16.5 0.00 0.06 0.00 43 1009.0
20260507185514 49 301 8.7 16.5 0.00 0.07 0.00 44 1009.1
20260507185014 49 326 8.7 16.5 0.00 0.07 0.00 41 1009.1
20260507184514 49 296 7.8 17.4 0.00 0.07 0.00 46 1009.1
20260507184013 49 297 7.8 21.7 0.00 0.07 0.00 46 1009.2
20260507183519 49 303 9.6 18.2 0.00 0.07 0.00 47 1009.2
20260507183021 48 289 9.6 18.2 0.00 0.07 0.00 44 1009.4
20260507182510 47 240 7.8 19.1 0.00 0.07 0.00 47 1009.4
20260507182010 48 318 9.6 19.1 0.00 0.07 0.00 46 1009.5
20260507181510 48 301 9.6 18.2 0.00 0.07 0.00 47 1009.4
20260507181009 48 279 7.8 18.2 0.00 0.07 0.00 48 1009.5
20260507180509 48 274 1.7 17.4 0.00 0.07 0.00 48 1009.6
20260507180009 48 241 9.6 17.4 0.00 0.07 0.00 56 1009.6
20260507175511 47 298 6.1 15.6 0.00 0.07 0.00 56 1009.7
20260507175009 47 310 10.4 18.2 0.00 0.07 0.00 54 1009.7
20260507174511 47 319 11.3 18.2 0.00 0.07 0.00 54 1009.6
20260507174008 46 271 8.7 13.0 0.00 0.07 0.00 51 1009.7
20260507173508 47 286 5.2 16.5 0.00 0.07 0.00 55 1009.7
20260507173008 47 307 10.4 16.5 0.00 0.07 0.00 52 1009.7
20260507172507 48 303 3.5 17.4 0.00 0.07 0.00 53 1009.8
20260507172005 47 287 9.6 17.4 0.00 0.07 0.00 56 1009.9
20260507171505 46 293 9.6 14.8 0.00 0.07 0.00 52 1009.9
20260507171006 47 267 7.8 14.8 0.00 0.07 0.00 54 1009.9
20260507170504 46 311 8.7 15.6 0.00 0.07 0.00 57 1009.9
20260507170005 46 286 9.6 15.6 0.00 0.07 0.00 57 1009.9
20260507165503 46 287 3.5 13.0 0.00 0.10 0.00 56 1009.9
20260507165003 46 285 7.8 15.6 0.00 0.10 0.00 55 1009.9
20260507164502 45 292 7.8 15.6 0.00 0.10 0.00 57 1010.1
20260507164003 45 293 8.7 13.9 0.00 0.10 0.00 57 1010.1
20260507163503 44 280 5.2 15.6 0.00 0.10 0.00 59 1010.2
20260507163002 44 327 10.4 14.8 0.00 0.10 0.00 56 1010.2
20260507162501 44 324 7.0 12.2 0.00 0.10 0.00 56 1010.3
20260507162000 44 275 7.8 13.0 0.00 0.10 0.00 56 1010.3
20260507161502 44 317 7.8 18.2 0.00 0.10 0.00 57 1010.3
20260507161100 44 301 1.7 18.2 0.00 0.10 0.00 56 1010.3
20260507160600 45 319 7.8 12.2 0.00 0.10 0.00 54 1010.3
20260507160100 45 320 6.1 12.2 0.00 0.10 0.00 56 1010.4
20260507155600 45 300 6.1 12.2 0.00 0.13 0.00 58 1010.4
20260507155100 45 257 4.3 13.0 0.00 0.13 0.00 55 1010.4
20260507154602 44 287 7.0 13.0 0.00 0.13 0.00 57 1010.6
20260507154100 44 307 4.3 17.4 0.00 0.13 0.00 56 1010.6
20260507153559 44 311 9.6 17.4 0.00 0.13 0.00 57 1010.7
20260507153105 45 323 7.8 12.2 0.00 0.13 0.00 58 1010.8
20260507152559 44 205 6.1 15.6 0.00 0.13 0.00 57 1010.8
20260507152100 44 278 7.8 15.6 0.00 0.13 0.00 57 1010.8
20260507151558 44 312 7.0 17.4 0.00 0.13 0.00 56 1010.8
20260507151057 44 290 8.7 17.4 0.00 0.13 0.00 55 1010.8
20260507150557 44 278 6.1 15.6 0.00 0.13 0.00 55 1010.9
20260507150100 44 270 10.4 15.6 0.00 0.13 0.00 56 1011.0
20260507145556 45 283 3.5 11.3 0.00 0.17 0.00 58 1011.1
20260507145054 44 313 5.2 16.5 0.00 0.17 0.00 61 1011.1
20260507144555 43 317 8.7 16.5 0.00 0.17 0.00 59 1011.0
20260507144054 44 285 7.8 14.8 0.00 0.17 0.00 60 1011.1
20260507143553 43 311 10.4 17.4 0.00 0.17 0.00 56 1011.1
20260507143153 43 288 9.6 17.4 0.00 0.17 0.00 56 1011.1
20260507142552 44 305 8.7 16.5 0.00 0.17 0.00 57 1011.0
20260507142050 43 334 7.8 13.9 0.00 0.17 0.00 58 1011.0
20260507141550 43 290 7.0 15.6 0.00 0.17 0.00 61 1010.9
20260507141049 43 315 9.6 15.6 0.00 0.17 0.00 56 1010.9
20260507140548 42 289 7.8 16.5 0.00 0.17 0.00 56 1010.8
20260507140058 43 322 8.7 16.5 0.00 0.17 0.00 56 1010.9
20260507135547 43 273 7.8 15.6 0.00 0.22 0.00 57 1010.9
20260507135043 43 286 6.1 13.0 0.00 0.22 0.00 60 1010.8
20260507134542 43 295 7.8 12.2 0.00 0.22 0.00 58 1010.8
20260507134040 42 309 5.2 12.2 0.00 0.22 0.00 56 1010.8
20260507133539 42 296 4.3 13.0 0.00 0.22 0.00 57 1011.0
20260507133038 42 329 8.7 14.8 0.00 0.22 0.00 57 1010.9
20260507132536 41 330 8.7 15.6 0.00 0.22 0.00 57 1011.0
20260507132035 41 321 11.3 15.6 0.00 0.22 0.00 57 1010.9
20260507131536 41 296 7.0 13.0 0.00 0.22 0.00 59 1011.0
20260507131034 41 294 7.8 11.3 0.00 0.22 0.00 61 1010.9
20260507130534 41 273 7.0 11.3 0.00 0.22 0.00 59 1010.9
20260507130034 41 292 6.1 9.6 0.00 0.22 0.00 60 1011.0
20260507125531 41 288 4.3 13.0 0.00 0.23 0.00 62 1010.9
20260507125031 40 279 7.0 13.0 0.00 0.23 0.00 63 1010.8
20260507124546 40 306 7.8 13.0 0.00 0.23 0.00 62 1011.0
20260507124031 40 295 6.1 13.0 0.00 0.23 0.00 62 1010.9
20260507123529 40 282 4.3 12.2 0.00 0.23 0.00 65 1010.9
20260507123030 39 286 6.1 13.0 0.00 0.23 0.00 66 1010.9
20260507122527 39 325 9.6 13.0 0.00 0.23 0.00 64 1010.8
20260507122026 39 270 7.0 13.0 0.00 0.23 0.00 68 1010.7
20260507121525 39 309 7.0 9.6 0.00 0.23 0.00 66 1010.7
20260507121024 39 310 6.1 10.4 0.00 0.23 0.00 67 1010.8
20260507120524 38 307 6.1 10.4 0.00 0.23 0.00 67 1010.7
20260507120021 38 304 6.1 8.7 0.00 0.23 0.00 69 1010.6
20260507115520 38 224 5.2 9.6 0.00 0.24 0.00 70 1010.5
20260507115021 38 298 5.2 9.6 0.00 0.24 0.00 69 1010.4
20260507114517 38 246 2.6 9.6 0.00 0.24 0.00 70 1010.5
20260507114016 38 305 2.6 7.8 0.00 0.24 0.00 71 1010.5
20260507113515 37 296 3.5 8.7 0.00 0.24 0.00 71 1010.6
20260507113017 37 285 2.6 8.7 0.00 0.24 0.00 72 1010.5
20260507112511 37 257 2.6 7.8 0.00 0.24 0.00 73 1010.6
20260507112009 37 302 1.7 7.0 0.00 0.24 0.00 73 1010.4
20260507111513 36 291 2.6 9.6 0.00 0.24 0.00 73 1010.5
20260507111006 36 314 5.2 9.6 0.00 0.24 0.00 72 1010.5
20260507110505 36 292 2.6 7.8 0.00 0.24 0.00 75 1010.5
20260507110011 35 264 3.5 9.6 0.00 0.24 0.00 76 1010.3
20260507105502 35 264 2.6 10.4 0.00 0.26 0.00 77 1010.1
20260507105103 35 229 1.7 10.4 0.00 0.26 0.00 77 1010.0
20260507104600 35 281 4.3 9.6 0.00 0.26 0.00 78 1010.0
20260507104059 34 239 3.5 9.6 0.00 0.26 0.00 80 1010.0
20260507103558 34 272 2.6 7.8 0.00 0.26 0.00 82 1009.8
20260507103056 34 246 0.9 6.1 0.00 0.26 0.00 82 1009.7
20260507102555 34 279 0.9 4.3 0.00 0.26 0.00 84 1009.7
20260507102054 34 292 0.9 5.2 0.00 0.26 0.00 85 1009.7
20260507101558 33 288 0.9 3.5 0.00 0.26 0.00 86 1009.7
20260507101055 33 275 0.0 3.5 0.00 0.26 0.00 86 1009.7
20260507100553 33 269 0.0 3.5 0.00 0.26 0.00 86 1009.8
20260507100056 33 254 0.0 7.0 0.00 0.26 0.00 86 1009.7
20260507095554 33 235 0.9 7.0 0.00 0.28 0.00 86 1009.8
20260507095052 34 286 0.0 2.6 0.00 0.28 0.00 86 1009.7
20260507094551 34 283 0.0 2.6 0.00 0.28 0.00 86 1009.7
20260507094053 34 282 0.0 2.6 0.00 0.28 0.00 86 1009.8
20260507093552 34 278 0.0 2.6 0.00 0.28 0.00 86 1009.9
20260507093050 34 278 0.0 2.6 0.00 0.28 0.00 86 1009.9
20260507092551 34 277 0.0 2.6 0.00 0.28 0.00 86 1009.9
20260507092052 34 293 0.9 3.5 0.00 0.28 0.00 87 1009.9